This is the latest recevied weather packets stored in our database for station/object YM2KA-13. If no packets are shown the sender has not sent any weather packets the latest 1 day(s).
| Time | Temp. | Humidity | Pressure | Rain* | Wind** | Luminosity | Snow |
|---|---|---|---|---|---|---|---|
| 1777999943 | 10° C | 73% | 1012.7 hPa | 0 mm | 0.89 m/s, 274° | - | - |
| 1777999425 | 10.56° C | 72% | 1012.7 hPa | 0 mm | 0.45 m/s, 281° | - | - |
| 1777999048 | 10.56° C | 71% | 1012.7 hPa | 0 mm | 0.89 m/s, 256° | - | - |
| 1777998824 | 10.56° C | 70% | 1012.7 hPa | 0 mm | 0.89 m/s, 255° | - | - |
| 1777998226 | 11.11° C | 68% | 1012.7 hPa | 0 mm | 1.34 m/s, 277° | - | - |
| 1777998145 | 11.11° C | 68% | 1012.7 hPa | 0 mm | 2.24 m/s, 283° | - | - |
| 1777997627 | 11.11° C | 69% | 1012.6 hPa | 0 mm | 1.34 m/s, 275° | - | - |
| 1777997241 | 11.67° C | 66% | 1012.5 hPa | 0 mm | 2.68 m/s, 281° | - | - |
| 1777997028 | 11.67° C | 64% | 1012.5 hPa | 0 mm | 0.89 m/s, 277° | - | - |
| 1777996429 | 11.67° C | 68% | 1012.5 hPa | 0 mm | 0.89 m/s, 290° | - | - |
| 1777996348 | 11.67° C | 68% | 1012.5 hPa | 0 mm | 0.89 m/s, 241° | - | - |
| 1777995820 | 11.67° C | 66% | 1012.5 hPa | 0 mm | 0.89 m/s, 229° | - | - |
| 1777995445 | 11.67° C | 67% | 1012.4 hPa | 0 mm | 1.34 m/s, 224° | - | - |
| 1777995221 | 11.67° C | 68% | 1012.4 hPa | 0 mm | 0.89 m/s, 235° | - | - |
| 1777994621 | 11.11° C | 69% | 1012.5 hPa | 0 mm | 0.89 m/s, 224° | - | - |
| 1777994540 | 11.11° C | 70% | 1012.5 hPa | 0 mm | 0 m/s | - | - |
| 1777994023 | 11.11° C | 68% | 1012.5 hPa | 0 mm | 1.34 m/s, 261° | - | - |
| 1777993648 | 11.11° C | 67% | 1012.6 hPa | 0 mm | 0.89 m/s, 262° | - | - |
| 1777993423 | 11.11° C | 66% | 1012.6 hPa | 0 mm | 2.24 m/s, 243° | - | - |
| 1777992824 | 11.11° C | 69% | 1012.6 hPa | 0 mm | 1.34 m/s, 261° | - | - |
| 1777992743 | 11.11° C | 69% | 1012.6 hPa | 0 mm | 1.34 m/s, 243° | - | - |
| 1777992225 | 11.11° C | 69% | 1012.6 hPa | 0 mm | 0.45 m/s, 265° | - | - |
| 1777991839 | 11.11° C | 69% | 1012.5 hPa | 0 mm | 0.89 m/s, 276° | - | - |
| 1777991624 | 11.11° C | 68% | 1012.5 hPa | 0 mm | 2.24 m/s, 262° | - | - |
| 1777991026 | 10.56° C | 69% | 1012.5 hPa | 0 mm | 0.89 m/s, 286° | - | - |
* Rain latest hour (hover to see other rain measurements)
** Current wind speed in m/s (hover to see current wind gust speed)